Weather History for Maastricht, Netherlands

Change the Weather History Date:

Monday, January 28, 2013

  Actual Average Record
Temperature  
Mean Temperature 38 °F -  
Max Temperature 43 °F 42 °F 55 °F (2002)
Min Temperature 34 °F 31 °F 19 °F (1998)
Degree Days  
Heating Degree Days 26    
Moisture  
Dew Point 36 °F    
Average Humidity 87    
Maximum Humidity 93    
Minimum Humidity 76    
Precipitation  
Precipitation 0.02 in 0.07 in - ()
Sea Level Pressure  
Sea Level Pressure 29.85 in    
Wind  
Wind Speed 14 mph ()    
Max Wind Speed 32 mph    
Max Gust Speed 44 mph    
Visibility 7.0 miles    
Events Rain    
Averages and records for this station are not official NWS values.
T = Trace of Precipitation, MM = Missing Value Source: Averaged Metar Reports

Daily Weather History Graph

Daily Weather History Graph

Search for Another Location

Airport:

Trip Planner

Search our weather history database for the weather conditions in past years. The results will help you decide how hot, cold, wet, or windy it might be!

Date:

Astronomy

Jan. 28, 2013 Rise Set
Actual Time 8:18 AM CET 5:21 PM CET
Civil Twilight 7:42 AM CET 5:57 PM CET
Nautical Twilight 7:02 AM CET 6:37 PM CET
Astronomical Twilight 6:24 AM CET 7:16 PM CET
Moon 7:17 PM CET (1/28) 8:21 AM CET (1/28)
Length of Visible Light 10h 14m
Length of Day
9h 02m
Full, 98% of the Moon is Illuminated
Jan 28
Full
Feb 3
Last Quarter
Feb 10
New
Feb 17
First Quarter
Feb 25
Full

Hourly Weather History & Observations

Time (CET) Temp. Windchill Dew Point Humidity Pressure Visibility Wind Dir Wind Speed Gust Speed Precip Events Conditions
12:25 AM 35.6 °F 27.1 °F 33.8 °F 93% 29.71 in 6.2 mi SSW 12.7 mph - N/A   Unknown
12:55 AM 37.4 °F 29.3 °F 35.6 °F 93% 29.71 in 6.2 mi SW 12.7 mph - N/A   Unknown
1:00 AM 37 °F - 34 °F 85% 29.75 in 9 mi SSW 13.4 mph - -   Partly Cloudy
1:25 AM 35.6 °F 27.5 °F 33.8 °F 93% 29.74 in 6.2 mi SSW 11.5 mph - N/A   Unknown
1:55 AM 37.4 °F 29.8 °F 33.8 °F 87% 29.74 in 6.2 mi SSW 11.5 mph - N/A   Unknown
2:25 AM 35.6 °F 27.5 °F 33.8 °F 93% 29.74 in 6.2 mi SSW 11.5 mph - N/A   Unknown
2:55 AM 35.6 °F 27.5 °F 33.8 °F 93% 29.74 in 6.2 mi SSW 11.5 mph - N/A   Unknown
3:25 AM 35.6 °F 27.5 °F 33.8 °F 93% 29.74 in 6.2 mi SSW 11.5 mph - N/A   Unknown
3:55 AM 35.6 °F 26.6 °F 33.8 °F 93% 29.77 in 6.2 mi SSW 13.8 mph - N/A   Unknown
4:00 AM 36 °F - 34 °F 88% 29.79 in 8 mi SSW 13.4 mph - -  
4:25 AM 35.6 °F 27.1 °F 33.8 °F 93% 29.77 in 6.2 mi SSW 12.7 mph - N/A   Unknown
4:55 AM 35.6 °F 26.6 °F 33.8 °F 93% 29.77 in 6.2 mi SSW 13.8 mph - N/A   Partly Cloudy
5:25 AM 35.6 °F 26.6 °F 33.8 °F 93% 29.80 in 6.2 mi SSW 13.8 mph - N/A   Unknown
5:55 AM 35.6 °F 26.2 °F 33.8 °F 93% 29.80 in 6.2 mi SSW 15.0 mph - N/A   Unknown
6:25 AM 35.6 °F 27.1 °F 33.8 °F 93% 29.80 in 6.2 mi SSW 12.7 mph - N/A   Unknown
6:55 AM 35.6 °F 26.6 °F 33.8 °F 93% 29.80 in 6.2 mi SSW 13.8 mph - N/A   Unknown
7:00 AM 35 °F - 33 °F 92% 29.85 in 9 mi SSW 13.4 mph - -   Partly Cloudy
7:25 AM 35.6 °F 27.1 °F 33.8 °F 93% 29.83 in 6.2 mi SSW 12.7 mph - N/A   Mostly Cloudy
7:55 AM 35.6 °F 27.5 °F 33.8 °F 93% 29.83 in 6.2 mi SSW 11.5 mph - N/A   Mostly Cloudy
8:25 AM 35.6 °F 27.1 °F 33.8 °F 93% 29.86 in 6.2 mi SSW 12.7 mph - N/A   Mostly Cloudy
8:55 AM 35.6 °F 26.6 °F 33.8 °F 93% 29.86 in 6.2 mi SSW 13.8 mph - N/A   Mostly Cloudy
9:25 AM 35.6 °F 26.6 °F 33.8 °F 93% 29.86 in 6.2 mi SSW 13.8 mph - N/A   Mostly Cloudy
9:55 AM 37.4 °F 29.8 °F 35.6 °F 93% 29.86 in 6.2 mi SSW 11.5 mph - N/A   Overcast
10:00 AM 38 °F - 35 °F 85% 29.91 in 10 mi SSW 11.2 mph - -   Overcast
10:25 AM 39.2 °F 31.6 °F 35.6 °F 87% 29.89 in 6.2 mi SSW 12.7 mph - N/A   Mostly Cloudy
10:55 AM 39.2 °F 30.8 °F 35.6 °F 87% 29.89 in 6.2 mi SW 15.0 mph - N/A Rain Light Rain
11:25 AM 39.2 °F 30.8 °F 35.6 °F 87% 29.92 in 6.2 mi SW 15.0 mph - N/A   Overcast
11:55 AM 41.0 °F 33.1 °F 37.4 °F 87% 29.92 in 6.2 mi SSW 15.0 mph - N/A   Overcast
12:25 PM 41.0 °F 33.1 °F 37.4 °F 87% 29.92 in 6.2 mi SW 15.0 mph - N/A   Overcast
12:55 PM 41.0 °F 32.8 °F 37.4 °F 87% 29.92 in 6.2 mi SW 16.1 mph - N/A   Overcast
1:00 PM 41 °F - 37 °F 79% 29.97 in 16 mi SW 17.9 mph - -   Partly Cloudy
1:25 PM 41.0 °F 32.8 °F 37.4 °F 87% 29.95 in 6.2 mi SW 16.1 mph - N/A   Mostly Cloudy
1:55 PM 42.8 °F 34.5 °F 37.4 °F 81% 29.95 in 6.2 mi SW 18.4 mph - N/A   Mostly Cloudy
2:25 PM 41.0 °F 32.5 °F 37.4 °F 87% 29.95 in 6.2 mi SW 17.3 mph - N/A   Overcast
2:55 PM 41.0 °F 32.5 °F 37.4 °F 87% 29.95 in 6.2 mi SW 17.3 mph - N/A   Overcast
3:25 PM 42.8 °F 34.8 °F 37.4 °F 81% 29.95 in 6.2 mi SW 17.3 mph - N/A   Mostly Cloudy
3:55 PM 41.0 °F 33.1 °F 35.6 °F 81% 29.95 in 6.2 mi SSW 15.0 mph - N/A   Overcast
4:00 PM 41 °F - 36 °F 77% 29.97 in 15 mi SSW 13.4 mph - -   Mostly Cloudy
4:25 PM 41.0 °F 33.1 °F 35.6 °F 81% 29.95 in 6.2 mi SSW 15.0 mph - N/A   Scattered Clouds
4:55 PM 41.0 °F 32.8 °F 35.6 °F 81% 29.95 in 6.2 mi SSW 16.1 mph - N/A   Unknown
5:25 PM 39.2 °F 30.2 °F 35.6 °F 87% 29.95 in 6.2 mi SSW 17.3 mph - N/A   Unknown
5:55 PM 39.2 °F 30.5 °F 35.6 °F 87% 29.95 in 6.2 mi SSW 16.1 mph - N/A   Unknown
6:25 PM 39.2 °F 30.2 °F 35.6 °F 87% 29.92 in 6.2 mi SSW 17.3 mph - N/A   Unknown
6:55 PM 39.2 °F 29.6 °F 35.6 °F 87% 29.92 in 6.2 mi SSW 19.6 mph - N/A   Unknown
7:00 PM 39 °F - 35 °F 80% 29.94 in 16 mi SSW 20.1 mph - -   Partly Cloudy
7:25 PM 39.2 °F 29.6 °F 35.6 °F 87% 29.89 in 6.2 mi SSW 19.6 mph - N/A   Unknown
7:55 PM 41.0 °F 30.9 °F 35.6 °F 81% 29.86 in 6.2 mi SSW 24.2 mph - N/A   Unknown
8:25 PM 41.0 °F 31.4 °F 35.6 °F 81% 29.86 in 6.2 mi SSW 21.9 mph - N/A   Unknown
8:55 PM 41.0 °F 30.9 °F 35.6 °F 81% 29.83 in 6.2 mi SSW 24.2 mph - N/A   Unknown
9:25 PM 42.8 °F 33.1 °F 37.4 °F 81% 29.83 in 6.2 mi SSW 25.3 mph - N/A   Mostly Cloudy
9:55 PM 42.8 °F 32.7 °F 37.4 °F 81% 29.80 in 6.2 mi SSW 27.6 mph 43.7 mph N/A   Mostly Cloudy
10:00 PM 43 °F - 38 °F 76% 29.84 in 13 mi SSW 29.1 mph - - Rain Light Drizzle
10:25 PM 42.8 °F 32.9 °F 37.4 °F 81% 29.80 in 6.2 mi SSW 26.5 mph 38.0 mph N/A Rain Light Rain
10:55 PM 42.8 °F 32.9 °F 39.2 °F 87% 29.80 in 6.2 mi SSW 26.5 mph - N/A   Overcast
11:25 PM 42.8 °F 32.9 °F 39.2 °F 87% 29.77 in 6.2 mi SSW 26.5 mph - N/A   Overcast
11:55 PM 42.8 °F 31.9 °F 39.2 °F 87% 29.74 in 6.2 mi SSW 32.2 mph 43.7 mph N/A   Mostly Cloudy